ARIANE 5 R/B, 40734

Orbit data source: Space-Track

ARIANE 5 R/B, 40734 is space debris in HEO originally from a launch on Wed, 15 Jul 2015 UTC launched from the French Guiana (FRGUI). Debris objects in space refer to the collection of defunct objects orbiting the Earth. Examples of debris include non-operational satellites, rocket bodies, and fragments generated from explosions, collisions, or faulty payload assembly.

Loading next visibility...
ARIANE 5 R/B details
Identifier
40734, 2015-034C
Orbit
HEO
Last TLE update1 day ago
Origin
Flag of FRArianespace (FR)
ManufacturerAirbus Safran
MissionSpacecraft
Bus & MotorESC-A, Unknown motor
Mass~5,000 kg wet, ~5,000 kg dry
Launch date (UTC)
2015-07-15 (9 years ago)
Launch vehicleUnknown
Launch site
French Guiana (FRGUI)
Object type
Payload
Rocket body
Debris
Shape & HBRCyl + 1 Nozzle, 7 m
Radar Cross Section41.627 m², Large (>1 m²)

Expand to show TLE details & history

TLE from 1 day ago
0 ARIANE 5 R/B
1 40734U 15034C   24360.27175195  .00008193  00000-0  23182-2 0  9992
2 40734   4.1991  64.5225 7201565 189.8002 138.9233  2.38110151 79841
Epoch: 2024-12-25T06:31Z
Definitive object data (Epoch: 2024-12-25T06:31:19.368Z)
Latitude0.00004°
Longitude-127.61874°
Altitude32,882.739 km
Speed1.865 km/s
True Right ascension04h 17m 55s
True Declination0° 00' 00"
Sunlit
Object was in daylight at TLE epoch
Visualization TLE readout
Latitude-1.53577°
Longitude-149.40347°
Altitude22,778.409 km
Speed3.243 km/s
Apparent Right ascension02h 16m 46s
Apparent Declination-8° 51' 00"
Sunlit
Object is in daylight
Visualization observer readout
Local Sidereal Time10:10:24
Azimuth281.931° WNW
Elevation-27.34°
Doppler factor1
Orbital elements
Apogee altitude34,380.473 km
Perigee altitude252.674 km
Semi-major axis23,694.71 km
Eccentricity0.7201565
Inclination4.1991°
RAAN64.5225°
Arg. of periapsis189.8002°
True anomaly170.12544°
Mean anomaly138.9233°
Eccentric anomaly155.82264°
Mean motion0.59507 °/min
BSTAR0.0023182
Orbital period604.97 mins
Loading maneuver chart data...
Loading historical data...
Loading historical data...
Loading historical data...
Loading historical data...
Loading historical data...
Loading historical data...
Loading historical data...

ARIANE 5 R/B Visibility forecast

Observer location: undefined°, undefined

Span
Click to sort rows by Start time (UTC) header in descending order
Start Az.
Max El. time (UTC)
Max El. Az.
Max El.
End time (UTC)
End Az.
200 mins2024-12-27 06:30:09.768Z243.92° WSW2024-12-27 07:45:09.768Z244.294° WSW15.579°2024-12-27 09:50:09.768Z254.257° W
|